User: anonymous   Login
Location: Summit Observatory
(39.5293°N, 75.7290°W)
Time: 16:20:21
(UTC-04:00)
Language:

Gurwin Techsat 1B - Orbit

View from above orbital plane
View from above orbital plane
View from above satellite
View from above satellite

Ground track
Ground track

The orbit data is extracted from the following two-line orbital elements,

1 25397U 98043D   16175.88800106 -.00000010 +00000-0 +14453-4 0  9994
2 25397 098.5673 120.6556 0001151 021.2675 338.8551 14.23596616932596
Epoch (UTC): 23 June 2016 21:18:43
Eccentricity: 0.0001151
inclination: 98.5673°
perigee height: 812 km
apogee height: 814 km
right ascension of ascending node: 120.6556°
argument of perigee: 21.2675°
revolutions per day: 14.23596616
mean anomaly at epoch: 338.8551°
orbit number at epoch: 93259

The dashed part of the orbit path shows where the satellite is in the earth's shadow,  

DLR